Location: Bushey
(51.6333°N, 0.3667°W)
Time: 20:56:43
(UTC+00:00)

USA 186 - Pass Details

Date: 03 March 2021
Orbit: 261 x 429 km, 96.9° (Epoch: 15 April)

Event Time Altitude Azimuth Distance (km) Brightness Sun altitude
Exits shadow 19:59:54 27° 280° (W) 613 3.3 -21.4°
Drops below altitude 10° 20:01:48 10° 326° (NNW) 1,183 4.7 -21.7°
Sets 20:03:52 0° 339° (NNW) 2,050 5.8 -22.0°
